{"data":{"norad_id":57752,"epoch":"2026-09-19T10:20:11.261760Z","epoch_age_seconds":223572,"freshness":"STALE","line1":"1 57752U 23131W   26262.43068590 -.00012775  00000+0 -45463-3 0  9997","line2":"2 57752  43.0037 158.5340 0001463 281.0847  78.9840 15.27641472169545","mean_motion":15.27641472,"eccentricity":0.0001463,"inclination_deg":43.0037,"raan_deg":158.534,"arg_perigee_deg":281.0847,"mean_anomaly_deg":78.984,"bstar":-0.00045463,"rev_number":16954,"period_min":94.262955437753,"perigee_km":481.86126833225,"apogee_km":483.86879752709,"semimajor_km":6861.0020329297,"source":"CELESTRAK","updated_at":"2026-09-21T09:00:33.682734Z"}}